Preview of NWS' New Version of Forecast
This preview is not operational and should not be used for support decisions.

Regional Weather Roundup (RWR)

Issued by National Weather Service (NWS)

                            
000
ASUS45 KBOI 240410
RWRID 

IDAHO REGIONAL WEATHER ROUNDUP
NATIONAL WEATHER SERVICE BOISE ID
1000 PM MDT SUN JUN 23 2019

NOTE: "FAIR" INDICATES FEW OR NO CLOUDS BELOW 12000 FEET
WITH NO SIGNIFICANT WEATHER AND/OR OBSTRUCTIONS TO VISIBILITY

IDZ012-014-240500-
SOUTHWEST IDAHO

  
CITY           SKY/WX    TMP DP  RH WIND       PRES   REMARKS
BOISE          CLEAR     69  36  29 NW10      29.95R                  
CALDWELL       CLEAR     66  42  41 NW7       29.96R                  
MOUNTAIN HOME  CLEAR     69  35  28 NW9       29.95R                  
$$

IDZ016-017-240500-
SOUTHCENTRAL IDAHO

  
CITY           SKY/WX    TMP DP  RH WIND       PRES   REMARKS
BURLEY         CLEAR     60  37  42 SW10      29.97R                  
JEROME         CLEAR     61  37  41 W5        29.97R                  
TWIN FALLS     CLEAR     55  38  52 SW7       29.99R                  
$$

IDZ019>023-240500-
SOUTHEAST IDAHO

  
CITY           SKY/WX    TMP DP  RH WIND       PRES   REMARKS
IDAHO FALLS    CLEAR     62  34  35 SW15      29.94R                  
POCATELLO      CLEAR     61  37  41 SW14      29.96R                  
REXBURG        CLEAR     61  33  35 S9        29.92R                  
$$

IDZ006-010-011-018-031-032-240500-
CENTRAL IDAHO MOUNTAINS

  
CITY           SKY/WX    TMP DP  RH WIND       PRES   REMARKS
MCCALL         PTCLDY    55  38  52 NW7       30.02S                  
HAILEY         CLEAR     61  30  31 W9        30.00R                  
STANLEY          N/A     46  29  51 CALM      30.08R                  
SALMON         MOCLDY    59  43  55 N10       29.94R                  
CHALLIS        CLEAR     64  29  26 W10       29.95R                  
$$

IDZ002-004-006-007-026-240500-
NORTHERN IDAHO

  
CITY           SKY/WX    TMP DP  RH WIND       PRES   REMARKS
LEWISTON       PTCLDY    68  40  35 W7        29.93S                  
LOWELL           N/A     59  54  83 CALM      29.97R                  
COEUR D'ALENE  CLOUDY    64  45  49 S6        29.92S                  
MULLAN PASS    CLOUDY    45  38  76 W6        30.02F                  
$$